Location: Diebersbach
(48.5163°N, 8.0558°E)
Time: 09:25:47
(UTC+00:00)

FALCON 9 DEB - Pass Details

Date: 20 June 2021
Orbit: 359 x 376 km, 53.0° (Epoch: 27 July)

Event Time Altitude Azimuth Distance (km) Brightness Sun altitude
Rises 00:59:18 0° 293° (WNW) 2,265 6.8 -15.3°
Reaches altitude 10° 01:01:24 10° 300° (WNW) 1,408 5.8 -15.2°
Maximum altitude 01:04:28 48° 16° (NNE) 510 3.9 -15.0°
Drops below altitude 10° 01:07:31 10° 93° (E) 1,397 5.9 -14.8°
Sets 01:09:35 0° 99° (E) 2,244 6.9 -14.6°
